Terminal Aerodrome Forecast
Issued by NWS Upton, NY

Home | Current Version | Previous Version | Text Only | Print | Product List | Glossary On
Versions: 1 2 3 4 5 6 7 8 9 10 11 12 13 14 15 16 17 18 19 20 21 22 23 24 25 26 27 28 29 30 31 32 33 34 35 36 37
000
FTUS41 KOKX 040900 AAB
TAFLGA
TAF AMD
KLGA 040951Z 0410/0506 25008KT 6SM -RA BR OVC013
      TEMPO 0410/0413 4SM -RA BR OVC008
     FM041300 25008KT 4SM -RA BR OVC010
     FM041700 27007KT 5SM -RA BR BKN010 BKN050
     FM050000 28005KT 4SM -RA BR OVC008=

USA.gov is the U.S. government's official web portal to all federal, state and local government web resources and services.